Вернуться в каталог

USA 413

АктивенВоенныеVLEO
NORAD 61034·PAYLOAD·🇺🇸 United States

Запущен Sep 6, 2024 с Vandenberg Space Force Base

Loading…

Ближайшие Пролёты (ближайшие 24 часа)

TLE

УстаревшееSource: Mike McCants

Эпоха: Aug 25, 2026, 23:27 UTC

1 61034U 24160P   26237.97773290 0.00000000  00000-0  00000-0 0    04
2 61034  70.0150 196.7042 0002000 271.6502  88.3497 14.96713220    07

Отслеживайте USA 413 в реальном времени с AllMySat

Download on the App Store